User: anonymous   Login
Location: �terpigny
(49.8910°N, 2.9249°E)
Time: 21:49:07
(UTC+00:00)
Language:

Cosmos 1455 Rocket - Orbit

View from above orbital plane
View from above orbital plane
View from above satellite
View from above satellite

Ground track
Ground track

The orbit data is extracted from the following two-line orbital elements,

1 14033U 83037B   22028.19186965  .00000175  00000-0  18241-4 0  9994
2 14033  82.5063 204.0448 0016705 317.3333  42.6583 14.83900724708529
Epoch (UTC): 28 January 2022 04:36:17
Eccentricity: 0.0016705
inclination: 82.5063°
perigee height: 605 km
apogee height: 629 km
right ascension of ascending node: 204.0448°
argument of perigee: 317.3333°
revolutions per day: 14.83900724
mean anomaly at epoch: 42.6583°
orbit number at epoch: 70852

The dashed part of the orbit path shows where the satellite is in the earth's shadow,  

DLR